DHL4TR LOWW-EKCH

Flight info

Callsign DHL4TR
Flight time N/A
Altitude 38000
Route LANUX4A/11 LANUX DCT TABEM DCT ERASU DCT RENDO DCT UNRIG DCT NAKIP DCT TEPDU DCT MATEK DCT LILBI DCT BUDIQ
Aircraft A332/H-SDE3GHIJ2J3J5M1RVWXY/LB2D1

Departure

Time N/A
Airport Vienna International Airport (LOWW)

Arrival

Time 2026-05-04 20:21
Airport Copenhagen Kastrup Airport (EKCH)
Time Latitude Longitude Altitude Speed Heading
2026-05-04 20:01 54.52731 12.64057 30418 ft 466 kts 329°
2026-05-04 20:01 54.55683 12.61778 29649 ft 463 kts 328°
2026-05-04 20:01 54.58604 12.59521 28945 ft 457 kts 328°
2026-05-04 20:02 54.61494 12.57284 28266 ft 453 kts 328°
2026-05-04 20:02 54.64340 12.55077 27700 ft 445 kts 328°
2026-05-04 20:02 54.67145 12.52895 26969 ft 441 kts 328°
2026-05-04 20:02 54.69946 12.50710 26299 ft 437 kts 328°
2026-05-04 20:03 54.72705 12.48555 25605 ft 435 kts 329°
2026-05-04 20:03 54.75449 12.46408 24947 ft 431 kts 329°
2026-05-04 20:03 54.78145 12.44358 24404 ft 427 kts 332°
2026-05-04 20:03 54.81023 12.42838 23918 ft 427 kts 341°
2026-05-04 20:04 54.83975 12.42254 23494 ft 427 kts 353°
2026-05-04 20:04 54.86846 12.42743 23111 ft 415 kts
2026-05-04 20:04 54.89569 12.44109 22796 ft 398 kts 13°
2026-05-04 20:04 54.92139 12.45647 22340 ft 383 kts 14°
2026-05-04 20:05 54.94596 12.47163 21750 ft 370 kts 15°
2026-05-04 20:05 54.96999 12.48652 21159 ft 362 kts 15°
2026-05-04 20:05 54.99373 12.50120 20584 ft 364 kts 15°
2026-05-04 20:05 55.01768 12.51599 19989 ft 364 kts 15°
2026-05-04 20:06 55.04126 12.53064 19424 ft 355 kts 15°
2026-05-04 20:06 55.06429 12.54497 18875 ft 347 kts 15°
2026-05-04 20:06 55.08695 12.55905 18293 ft 344 kts 15°
2026-05-04 20:06 55.10942 12.57303 17626 ft 341 kts 15°
2026-05-04 20:07 55.13171 12.58689 16974 ft 338 kts 15°
2026-05-04 20:07 55.15372 12.60060 16341 ft 334 kts 15°
2026-05-04 20:07 55.17559 12.61424 15699 ft 334 kts 15°
2026-05-04 20:07 55.19761 12.62795 15068 ft 336 kts 15°
2026-05-04 20:08 55.21939 12.64159 14459 ft 329 kts 15°
2026-05-04 20:08 55.24081 12.65448 13861 ft 323 kts 13°
2026-05-04 20:08 55.26199 12.66687 13188 ft 320 kts 16°
2026-05-04 20:08 55.28252 12.68190 12522 ft 318 kts 19°
2026-05-04 20:09 55.30221 12.69700 12420 ft 296 kts 19°
2026-05-04 20:09 55.32029 12.71115 12429 ft 273 kts 19°
2026-05-04 20:09 55.33752 12.72465 12375 ft 283 kts 19°
2026-05-04 20:09 55.35644 12.73929 11896 ft 308 kts 19°
2026-05-04 20:10 55.37624 12.75490 11224 ft 312 kts 20°
2026-05-04 20:10 55.39557 12.77033 10637 ft 307 kts 20°
2026-05-04 20:10 55.41486 12.78578 10051 ft 303 kts 20°
2026-05-04 20:10 55.43389 12.80101 9460 ft 299 kts 20°
2026-05-04 20:11 55.45272 12.81608 8940 ft 296 kts 20°
2026-05-04 20:11 55.47155 12.83114 8419 ft 298 kts 20°
2026-05-04 20:11 55.49052 12.84632 7891 ft 300 kts 21°
2026-05-04 20:11 55.50955 12.86158 7391 ft 301 kts 21°
2026-05-04 20:12 55.52864 12.87691 6893 ft 301 kts 21°
2026-05-04 20:12 55.54753 12.89212 6446 ft 293 kts 21°
2026-05-04 20:12 55.56577 12.90684 5992 ft 283 kts 21°
2026-05-04 20:12 55.58353 12.92116 5536 ft 279 kts 21°
2026-05-04 20:13 55.60114 12.93534 5151 ft 277 kts 21°
2026-05-04 20:13 55.61844 12.94931 4745 ft 268 kts 21°
2026-05-04 20:13 55.63510 12.96280 4344 ft 259 kts 21°
2026-05-04 20:13 55.65119 12.97583 4042 ft 247 kts 21°
2026-05-04 20:14 55.66637 12.98809 3989 ft 235 kts 19°
2026-05-04 20:14 55.68199 12.99338 3986 ft 225 kts 354°
2026-05-04 20:14 55.69737 12.98988 3988 ft 222 kts 346°
2026-05-04 20:14 55.71224 12.98488 3987 ft 218 kts 345°
2026-05-04 20:15 55.72689 12.97983 3983 ft 212 kts 345°
2026-05-04 20:15 55.74131 12.97487 3983 ft 211 kts 345°
2026-05-04 20:15 55.75564 12.96930 3981 ft 210 kts 337°
2026-05-04 20:15 55.76708 12.95466 3932 ft 202 kts 304°
2026-05-04 20:16 55.77168 12.93152 3623 ft 203 kts 271°
2026-05-04 20:16 55.76951 12.90643 3242 ft 210 kts 252°
2026-05-04 20:16 55.76275 12.88375 3007 ft 204 kts 235°
2026-05-04 20:16 55.75311 12.86576 2997 ft 200 kts 225°
2026-05-04 20:17 55.74270 12.84971 3015 ft 193 kts 224°
2026-05-04 20:17 55.73294 12.83465 2977 ft 179 kts 225°
2026-05-04 20:17 55.72358 12.82021 2709 ft 179 kts 225°
2026-05-04 20:17 55.71430 12.80573 2412 ft 181 kts 225°
2026-05-04 20:18 55.70489 12.79105 2160 ft 179 kts 225°
2026-05-04 20:18 55.69563 12.77664 1908 ft 175 kts 225°
2026-05-04 20:18 55.68667 12.76272 1676 ft 166 kts 225°
2026-05-04 20:18 55.67830 12.74971 1471 ft 155 kts 225°
2026-05-04 20:19 55.67031 12.73728 1249 ft 152 kts 226°
2026-05-04 20:19 55.66231 12.72482 1033 ft 153 kts 225°
2026-05-04 20:19 55.65428 12.71235 816 ft 154 kts 224°
2026-05-04 20:19 55.64624 12.69985 604 ft 154 kts 223°
2026-05-04 20:20 55.63818 12.68740 394 ft 154 kts 223°
2026-05-04 20:20 55.63006 12.67483 168 ft 154 kts 223°
2026-05-04 20:20 55.62215 12.66259 29 ft 148 kts 223°
2026-05-04 20:20 55.61539 12.65204 24 ft 108 kts 221°
2026-05-04 20:21 55.61252 12.64611 28 ft 41 kts 249°
2026-05-04 20:21 55.61224 12.64462 25 ft 0 kts 252°
2026-05-04 20:21 55.61221 12.64447 26 ft 3 kts 252°
2026-05-04 20:22 55.61199 12.64327 25 ft 16 kts 252°
2026-05-04 20:22 55.61227 12.64112 19 ft 23 kts 334°
2026-05-04 20:22 55.61380 12.64225 22 ft 29 kts 31°
2026-05-04 20:22 55.61569 12.64443 24 ft 36 kts 32°
2026-05-04 20:23 55.61792 12.64700 27 ft 41 kts 33°
2026-05-04 20:23 55.61930 12.64860 23 ft 0 kts 33°
2026-05-04 20:23 55.61935 12.64866 23 ft 5 kts 33°
2026-05-04 20:23 55.61986 12.64933 28 ft 10 kts 43°
2026-05-04 20:24 55.61988 12.65068 24 ft 15 kts 123°
2026-05-04 20:24 55.61919 12.65257 22 ft 21 kts 122°
2026-05-04 20:24 55.61843 12.65465 23 ft 7 kts 123°
2026-05-04 20:24 55.61843 12.65467 24 ft 0 kts 123°
2026-05-04 20:25 55.61842 12.65467 24 ft 0 kts 123°
2026-05-04 20:26 55.61841 12.65470 24 ft 4 kts 123°
2026-05-04 20:26 55.61794 12.65599 27 ft 15 kts 123°
2026-05-04 20:26 55.61731 12.65768 28 ft 18 kts 123°
2026-05-04 20:27 55.61649 12.65990 27 ft 26 kts 123°
2026-05-04 20:27 55.61546 12.66271 25 ft 29 kts 123°
2026-05-04 20:27 55.61432 12.66579 24 ft 31 kts 123°
2026-05-04 20:27 55.61320 12.66880 25 ft 25 kts 123°
2026-05-04 20:28 55.61285 12.67038 28 ft 5 kts 71°
2026-05-04 20:28 55.61319 12.67098 30 ft 14 kts 36°
2026-05-04 20:28 55.61419 12.67130 21 ft 16 kts 352°
2026-05-04 20:28 55.61541 12.67090 22 ft 19 kts 348°
2026-05-04 20:29 55.61674 12.67041 18 ft 21 kts 348°
2026-05-04 20:29 55.61821 12.66986 19 ft 18 kts 348°
2026-05-04 20:29 55.61837 12.67000 19 ft 2 kts 49°
2026-05-04 20:29 55.61846 12.67046 19 ft 5 kts 77°
2026-05-04 20:30 55.61854 12.67127 20 ft 7 kts 80°
2026-05-04 20:30 55.61855 12.67132 20 ft 0 kts 80°